Location: Esp�s Alto
(42.4476°N, 0.5876°E)
Time: 19:53:11
(UTC+00:00)

Cosmos 1953 - Pass Details

Date: 22 October 2019
Orbit: 538 x 559 km, 82.5° (Epoch: 14 November)

Event Time Altitude Azimuth Distance (km) Brightness Sun altitude
Rises 04:38:34 0° 344° (NNW) 2,732 5.7 -19.1°
Enters shadow 04:38:56 - 343° (NNW) 2,582 5.6 -19.0°
Exits shadow 04:45:16 37° 242° (WSW) 854 2.8 -17.8°
Drops below altitude 10° 04:48:20 10° 197° (SSW) 1,804 4.8 -17.3°
Sets 04:50:33 0° 190° (S) 2,688 5.7 -16.9°
